Home   Weather   St. Pölten   Past weeks
Flag for Austria

Past Weather in St. Pölten, Lower Austria, Austria — Yesterday and Last 2 Weeks

Now
63 °F

Passing clouds.


Feels Like: 63 °F
Forecast: 69 / 49 °F
Wind: 14 mph from East

Location: Tulln Airport

Current Time: Oct 14, 2019 at 11:40:48 pm

Latest Report: Oct 14, 2019 at 10:50 pm


Visibility: 12 mi

Pressure: 29.92 "Hg

Humidity: 77%

Dew Point: 55 °F

Location of St. PöltenLocation

Past Weather in St. Pölten — Graph

°F

St. Pölten Temperature Yesterday

Maximum temperature yesterday: 61 °F (at 12:50 pm)
Minimum temperature yesterday: 48 °F (at 5:50 am)
Average temperature yesterday: 55 °F

High & Low Weather Summary for the Past Weeks

 TemperatureHumidityPressure
High79 °F (Oct 1, 2:20 pm)100% (Oct 8, 5:50 am)30.24 "Hg (Oct 8, 5:50 am)
Low32 °F (Oct 8, 5:50 am)33% (Sep 30, 2:20 pm)29.65 "Hg (Sep 30, 5:50 am)
Average56 °F73%29.95 "Hg
* Reported Sep 29 10:50 pm — Oct 14 9:50 pm, St. Pölten. Weather by CustomWeather, © 2019

Note: Actual official high and low records may vary slightly from our data, if they occured in-between our weather recording intervals... More about our weather records

Advertising

St. Pölten Weather History for the Previous 24 Hours

Scroll right to see more
 ConditionsComfort  
Time TempWeatherWind HumidityBarometerVisibility
9:50 pm
Mon, Oct 14
64 °FPassing clouds.9 mph73%29.95 "Hg12 mi
8:50 pm63 °FPassing clouds.12 mph77%29.95 "Hg12 mi
7:50 pm63 °FPassing clouds.14 mph77%29.98 "Hg12 mi
6:50 pm64 °FPassing clouds.16 mph73%29.98 "Hg12 mi
5:50 pm63 °FScattered clouds.14 mph77%29.98 "Hg12 mi
4:50 pm64 °FScattered clouds.14 mph73%30.01 "Hg12 mi
3:50 pm64 °FPassing clouds.14 mph73%30.04 "Hg12 mi
3:20 pm63 °FPassing clouds.12 mph77%30.04 "Hg9 mi
2:50 pm63 °FPassing clouds.14 mph73%30.07 "Hg6 mi
2:20 pm61 °FScattered clouds.9 mph83%30.07 "Hg5 mi
1:50 pm61 °FBroken clouds.9 mph83%30.07 "Hg4 mi
1:20 pm59 °FFog.No wind88%30.09 "Hg3 mi
12:50 pm55 °FFog.No wind94%30.09 "Hg1 mi
12:20 pm55 °FLow clouds.2 mph94%30.12 "Hg1 mi
11:50 am54 °FDrizzle. Fog.2 mph100%30.12 "Hg1 mi
11:20 am54 °FDrizzle. Fog.2 mph100%30.12 "Hg1 mi
10:50 am54 °FDrizzle. Fog.No wind94%30.12 "Hg1 mi
9:50 am52 °FDrizzle. Fog.No wind100%30.12 "Hg1 mi
9:20 am52 °FDrizzle. Fog.No wind100%30.12 "Hg1 mi
8:50 am52 °FDrizzle. Fog.No wind100%30.12 "Hg1 mi
8:20 am50 °FDrizzle. Fog.No wind100%30.12 "Hg1 mi
7:50 am50 °FDrizzle. Fog.No wind100%30.09 "Hg0 mi
7:20 am50 °FDrizzle. Fog.No wind100%30.09 "Hg0 mi
6:50 am50 °FDrizzle. Fog.No wind100%30.09 "Hg0 mi
5:50 am50 °FFog.No wind100%30.09 "Hg0 mi
Weather by CustomWeather, © 2019

See weather overview